This is the latest recevied weather packets stored in our database for station/object KM4NDN. If no packets are shown the sender has not sent any weather packets the latest 10 day(s).
| Time | Temp. | Humidity | Pressure | Rain* | Wind** | Luminosity | Snow |
|---|---|---|---|---|---|---|---|
| 1777422154 | 15.56° C | 69% | 1011.7 hPa | 0 mm | - | 3 W/m² | - |
| 1777421853 | 15.56° C | 70% | 1011.5 hPa | 0 mm | - | 6 W/m² | - |
| 1777421548 | 15.56° C | 69% | 1011.5 hPa | 0 mm | - | 7 W/m² | - |
| 1777421245 | 15.56° C | 69% | 1011.4 hPa | 0 mm | - | 12 W/m² | - |
| 1777420941 | 15.56° C | 68% | 1010.8 hPa | 0 mm | - | 15 W/m² | - |
| 1777420637 | 15.56° C | 68% | 1011 hPa | 0 mm | - | 19 W/m² | - |
| 1777420334 | 15.56° C | 68% | 1010.8 hPa | 0 mm | - | 18 W/m² | - |
| 1777420029 | 16.11° C | 67% | 1011 hPa | 0 mm | - | 24 W/m² | - |
| 1777419727 | 16.11° C | 66% | 1011.4 hPa | 0 mm | - | 29 W/m² | - |
| 1777419424 | 16.11° C | 66% | 1011.4 hPa | 0 mm | - | 38 W/m² | - |
| 1777419124 | 16.11° C | 67% | 1011.6 hPa | 0 mm | - | 44 W/m² | - |
| 1777418823 | 16.11° C | 66% | 1011.6 hPa | 0 mm | - | 43 W/m² | - |
| 1777418520 | 16.11° C | 65% | 1011.9 hPa | 0 mm | - | 46 W/m² | - |
| 1777418216 | 16.11° C | 65% | 1011.9 hPa | 0 mm | - | 48 W/m² | - |
| 1777417912 | 16.11° C | 66% | 1012 hPa | 0 mm | - | 37 W/m² | - |
| 1777417608 | 16.67° C | 65% | 1012 hPa | 0 mm | - | 52 W/m² | - |
| 1777417304 | 16.11° C | 65% | 1012 hPa | 0 mm | - | 67 W/m² | - |
| 1777417001 | 16.11° C | 65% | 1011.8 hPa | 0 mm | - | 73 W/m² | - |
| 1777416696 | 16.67° C | 64% | 1011.6 hPa | 0 mm | - | 67 W/m² | - |
| 1777416392 | 16.67° C | 65% | 1011.8 hPa | 0 mm | - | 83 W/m² | - |
| 1777416092 | 16.67° C | 64% | 1011.7 hPa | 0 mm | - | 121 W/m² | - |
| 1777415787 | 16.67° C | 64% | 1011.5 hPa | 0 mm | - | 97 W/m² | - |
| 1777415483 | 16.67° C | 64% | 1011.3 hPa | 0 mm | - | 115 W/m² | - |
| 1777415179 | 16.67° C | 66% | 1011.4 hPa | 0 mm | - | 124 W/m² | - |
| 1777414874 | 17.22° C | 64% | 1011.3 hPa | 0 mm | - | 99 W/m² | - |
* Rain latest hour (hover to see other rain measurements)
** Current wind speed in m/s (hover to see current wind gust speed)